EHGG

Eelde Airport

Airport
ICAO code
EHGG
IATA Code
GRQ
Summary
ICAO Region
EUR
ICAO Territory
Location

Eelde, Drenthe

Serving
Groningen
Elevation
17 ft
Coordinates
53° 7' 11" N , 6° 34' 46" E
KCC
Metar
Observation
EHGG 291725Z AUTO 01006KT 340V060 9999 BKN009 OVC010 07/06 Q1020 BECMG 4000 BR TEMPO BKN012
Station
Groningen Airport Eelde
Date/Time
2022-11-29 17:25:00
Wind direction
10°
Wind speed
06 kts
Lowest cloud amount
broken clouds
Temperature
7°C
Dew point
6°C
Humidity
93%
QNH
1020 hPa
Weather condition
n/a

Groningen Airport Eelde is a civilian airport near Eelde, a town in the province of Drenthe in the Netherlands. It is located 4.8 nm south of the city of Groningen.

Climatology

Temperate Marine climate/Oceanic climate (Köppen climate classification Cfb). Moderately cool summer and comparatively warm winter with a temperature range of only 14°C. Prevailing south-westerly winds from the Atlantic Ocean.

Runways

Designator Length Width Surface Rops
1/19 1500 45 ASP No/No
5/23 1800 45 ASP No/No

Airport map

Aerial View

SKYbrary Partners:

Safety knowledge contributed by: